TVS16H HEMA-LKMT

Flight info

Callsign TVS16H
Flight time 4h 39m
Altitude 36000
Route ALKUN V730 MEMPO L300 LXR P751 KUNKI L321 REXUM M872 SOBAX DCT NOGLI L551 ANTAR UN133 PEREN UL863 EVIVI L863 OKANA DCT ESIRI DCT PARAK DCT AMRAX DCT NIDOK L617 BILNA
Aircraft A320/M-SDE2E3FGIJ1RWXY/H

Departure

Time 2026-05-09 04:54
Airport Marsa Alam International Airport (HEMA)

Arrival

Time 2026-05-09 09:33
Airport Leoš Janáček Airport Ostrava (LKMT)
Time Latitude Longitude Altitude Speed Heading
2026-05-09 04:25 25.55472 34.59092 242 ft 0 kts 59°
2026-05-09 04:45 25.55469 34.59087 242 ft 4 kts 59°
2026-05-09 04:46 25.55456 34.59062 242 ft 2 kts 60°
2026-05-09 04:46 25.55447 34.59039 242 ft 4 kts 89°
2026-05-09 04:46 25.55453 34.59012 242 ft 4 kts 127°
2026-05-09 04:46 25.55472 34.58992 242 ft 3 kts 150°
2026-05-09 04:47 25.55483 34.58985 242 ft 0 kts 150°
2026-05-09 04:49 25.55479 34.58988 242 ft 4 kts 150°
2026-05-09 04:49 25.55420 34.59025 242 ft 11 kts 150°
2026-05-09 04:49 25.55358 34.59065 242 ft 10 kts 150°
2026-05-09 04:49 25.55301 34.59101 242 ft 11 kts 150°
2026-05-09 04:50 25.55235 34.59136 242 ft 10 kts 175°
2026-05-09 04:50 25.55172 34.59071 245 ft 14 kts 238°
2026-05-09 04:50 25.55111 34.59005 254 ft 15 kts 186°
2026-05-09 04:50 25.54985 34.59071 254 ft 21 kts 151°
2026-05-09 04:51 25.54865 34.59150 253 ft 20 kts 150°
2026-05-09 04:51 25.54749 34.59225 249 ft 16 kts 149°
2026-05-09 04:51 25.54675 34.59268 249 ft 10 kts 167°
2026-05-09 04:51 25.54625 34.59241 250 ft 6 kts 233°
2026-05-09 04:52 25.54613 34.59217 251 ft 1 kts 241°
2026-05-09 04:52 25.54608 34.59208 252 ft 6 kts 241°
2026-05-09 04:52 25.54577 34.59145 253 ft 9 kts 241°
2026-05-09 04:52 25.54580 34.59105 254 ft 5 kts 320°
2026-05-09 04:53 25.54596 34.59094 254 ft 0 kts 331°
2026-05-09 04:53 25.54600 34.59092 254 ft 9 kts 331°
2026-05-09 04:53 25.54872 34.58918 258 ft 79 kts 330°
2026-05-09 04:53 25.55521 34.58505 257 ft 134 kts 329°
2026-05-09 04:54 25.56467 34.57915 287 ft 174 kts 329°
2026-05-09 04:54 25.57473 34.57236 912 ft 168 kts 329°
2026-05-09 04:54 25.58493 34.56585 1476 ft 169 kts 331°
2026-05-09 04:54 25.59533 34.55933 1933 ft 180 kts 331°
2026-05-09 04:55 25.60674 34.55195 2152 ft 200 kts 330°
2026-05-09 04:55 25.61945 34.54366 2374 ft 224 kts 331°
2026-05-09 04:55 25.63362 34.53452 2694 ft 246 kts 331°
2026-05-09 04:55 25.64865 34.52484 3300 ft 255 kts 330°
2026-05-09 04:56 25.66427 34.51476 4019 ft 261 kts 330°
2026-05-09 04:56 25.67981 34.50400 4754 ft 266 kts 321°
2026-05-09 04:56 25.69132 34.48781 5413 ft 272 kts 295°
2026-05-09 04:56 25.69539 34.46724 6109 ft 279 kts 269°
2026-05-09 04:57 25.69080 34.44636 6758 ft 285 kts 243°
2026-05-09 04:57 25.67952 34.42821 7439 ft 288 kts 234°
2026-05-09 04:57 25.66745 34.41030 8137 ft 290 kts 234°
2026-05-09 04:57 25.65531 34.39233 8839 ft 292 kts 234°
2026-05-09 04:58 25.64314 34.37427 9536 ft 294 kts 234°
2026-05-09 04:58 25.63084 34.35601 10126 ft 300 kts 234°
2026-05-09 04:58 25.61790 34.33673 10255 ft 322 kts 234°
2026-05-09 04:58 25.60410 34.31617 10430 ft 341 kts 234°
2026-05-09 04:59 25.58981 34.29484 10913 ft 348 kts 234°
2026-05-09 04:59 25.57531 34.27321 11506 ft 351 kts 234°
2026-05-09 04:59 25.56069 34.25143 12112 ft 354 kts 234°
2026-05-09 04:59 25.54593 34.22944 12711 ft 357 kts 234°
2026-05-09 05:00 25.53105 34.20732 13324 ft 360 kts 234°
2026-05-09 05:00 25.51603 34.18503 13894 ft 362 kts 235°
2026-05-09 05:00 25.50089 34.16257 14395 ft 365 kts 235°
2026-05-09 05:00 25.48569 34.13991 14928 ft 368 kts 237°
2026-05-09 05:01 25.47296 34.11536 15430 ft 369 kts 248°
2026-05-09 05:01 25.46471 34.08852 15938 ft 369 kts 257°
2026-05-09 05:01 25.45796 34.06104 16457 ft 372 kts 257°
2026-05-09 05:01 25.45119 34.03365 16967 ft 375 kts 257°
2026-05-09 05:02 25.44424 34.00575 17463 ft 378 kts 257°
2026-05-09 05:02 25.43712 33.97724 17990 ft 381 kts 257°
2026-05-09 05:02 25.43044 33.94923 18451 ft 382 kts 261°
2026-05-09 05:02 25.42763 33.91973 18926 ft 381 kts 272°
2026-05-09 05:03 25.42998 33.89104 19387 ft 379 kts 283°
2026-05-09 05:03 25.43719 33.86269 19900 ft 378 kts 290°
2026-05-09 05:03 25.44533 33.83496 20396 ft 379 kts 290°
2026-05-09 05:03 25.45332 33.80751 20899 ft 380 kts 290°
2026-05-09 05:04 25.46135 33.77964 21391 ft 381 kts 290°
2026-05-09 05:04 25.46951 33.75127 21901 ft 382 kts 290°
2026-05-09 05:04 25.47747 33.72361 22374 ft 383 kts 290°
2026-05-09 05:04 25.48557 33.69552 22848 ft 384 kts 290°
2026-05-09 05:05 25.49368 33.66739 23315 ft 385 kts 290°
2026-05-09 05:05 25.50195 33.63876 23723 ft 386 kts 290°
2026-05-09 05:05 25.51003 33.61075 24067 ft 387 kts 290°
2026-05-09 05:05 25.51821 33.58230 24400 ft 389 kts 290°
2026-05-09 05:06 25.52652 33.55333 24724 ft 391 kts 291°
2026-05-09 05:06 25.53479 33.52452 25063 ft 392 kts 291°
2026-05-09 05:06 25.54295 33.49607 25370 ft 394 kts 291°
2026-05-09 05:06 25.55127 33.46711 25683 ft 396 kts 291°
2026-05-09 05:07 25.55963 33.43800 25994 ft 398 kts 291°
2026-05-09 05:07 25.56802 33.40873 26286 ft 399 kts 291°
2026-05-09 05:07 25.57653 33.37899 26591 ft 401 kts 291°
2026-05-09 05:07 25.58485 33.34984 26876 ft 403 kts 291°
2026-05-09 05:08 25.59331 33.32020 27165 ft 404 kts 291°
2026-05-09 05:08 25.60181 33.29043 27450 ft 406 kts 291°
2026-05-09 05:08 25.61031 33.26054 27719 ft 408 kts 291°
2026-05-09 05:08 25.61884 33.23046 27987 ft 409 kts 291°
2026-05-09 05:09 25.62734 33.20039 28253 ft 411 kts 291°
2026-05-09 05:09 25.63593 33.17006 28510 ft 412 kts 291°
2026-05-09 05:09 25.64454 33.13970 28751 ft 414 kts 291°
2026-05-09 05:09 25.65321 33.10916 28986 ft 416 kts 291°
2026-05-09 05:10 25.66193 33.07852 29225 ft 417 kts 291°
2026-05-09 05:10 25.67071 33.04783 29471 ft 419 kts 291°
2026-05-09 05:10 25.67950 33.01704 29701 ft 420 kts 291°
2026-05-09 05:10 25.68830 32.98608 29933 ft 422 kts 291°
2026-05-09 05:11 25.69706 32.95500 30122 ft 423 kts 291°
2026-05-09 05:11 25.70579 32.92386 30314 ft 424 kts 291°
2026-05-09 05:11 25.71457 32.89261 30522 ft 424 kts 291°
2026-05-09 05:11 25.72333 32.86141 30785 ft 423 kts 291°
2026-05-09 05:12 25.73207 32.83037 31052 ft 422 kts 291°
2026-05-09 05:12 25.74088 32.79942 31309 ft 420 kts 293°
2026-05-09 05:12 25.75255 32.77000 31554 ft 415 kts 302°
2026-05-09 05:12 25.76840 32.74345 31786 ft 412 kts 310°
2026-05-09 05:13 25.78674 32.71903 32021 ft 412 kts 311°
2026-05-09 05:13 25.80514 32.69469 32254 ft 411 kts 311°
2026-05-09 05:13 25.81729 32.67859 32401 ft 411 kts 311°
2026-05-09 05:13 25.83559 32.65428 32613 ft 411 kts 311°
2026-05-09 05:14 25.85389 32.62991 32827 ft 410 kts 311°
2026-05-09 05:14 25.87211 32.60557 33027 ft 410 kts 310°
2026-05-09 05:14 25.89036 32.58114 33237 ft 410 kts 311°
2026-05-09 05:14 25.90858 32.55678 33456 ft 410 kts 311°
2026-05-09 05:15 25.92681 32.53243 33689 ft 409 kts 311°
2026-05-09 05:15 25.94501 32.50811 33924 ft 409 kts 311°
2026-05-09 05:15 25.96316 32.48383 34126 ft 409 kts 310°
2026-05-09 05:15 25.98129 32.45954 34316 ft 408 kts 310°
2026-05-09 05:16 25.99944 32.43524 34511 ft 408 kts 310°
2026-05-09 05:16 26.01759 32.41093 34697 ft 408 kts 310°
2026-05-09 05:16 26.03569 32.38672 34873 ft 407 kts 310°
2026-05-09 05:16 26.05376 32.36254 35039 ft 407 kts 310°
2026-05-09 05:17 26.07184 32.33833 35207 ft 407 kts 310°
2026-05-09 05:17 26.08987 32.31416 35368 ft 406 kts 310°
2026-05-09 05:17 26.10790 32.28994 35525 ft 406 kts 310°
2026-05-09 05:17 26.12590 32.26572 35658 ft 406 kts 310°
2026-05-09 05:18 26.14388 32.24154 35807 ft 405 kts 310°
2026-05-09 05:18 26.16178 32.21746 35960 ft 405 kts 310°
2026-05-09 05:18 26.17950 32.19355 35995 ft 404 kts 310°
2026-05-09 05:19 26.21556 32.14500 36005 ft 404 kts 310°
2026-05-09 05:19 26.25116 32.09706 36007 ft 405 kts 310°
2026-05-09 05:20 26.28678 32.04893 36020 ft 405 kts 310°
2026-05-09 05:20 26.32266 32.00049 36018 ft 406 kts 309°
2026-05-09 05:21 26.35831 31.95226 36006 ft 406 kts 310°
2026-05-09 05:21 26.39420 31.90365 36010 ft 406 kts 309°
2026-05-09 05:22 26.43010 31.85501 36014 ft 406 kts 309°
2026-05-09 05:22 26.46602 31.80633 36015 ft 407 kts 309°
2026-05-09 05:23 26.50195 31.75756 36016 ft 407 kts 309°
2026-05-09 05:23 26.53785 31.70863 36019 ft 407 kts 309°
2026-05-09 05:24 26.57380 31.65968 36029 ft 408 kts 309°
2026-05-09 05:24 26.60998 31.61055 36030 ft 408 kts 309°
2026-05-09 05:25 26.64603 31.56134 36035 ft 409 kts 309°
2026-05-09 05:25 26.70000 31.48754 36045 ft 409 kts 309°
2026-05-09 05:26 26.73607 31.43824 36050 ft 409 kts 309°
2026-05-09 05:26 26.77206 31.38883 36052 ft 410 kts 309°
2026-05-09 05:27 26.80808 31.33932 36064 ft 410 kts 309°
2026-05-09 05:27 26.84421 31.28986 36061 ft 410 kts 309°
2026-05-09 05:28 26.88004 31.24069 36073 ft 410 kts 309°
2026-05-09 05:28 26.91611 31.19110 36084 ft 411 kts 309°
2026-05-09 05:29 26.95221 31.14143 36090 ft 411 kts 309°
2026-05-09 05:29 26.98822 31.09174 36089 ft 411 kts 309°
2026-05-09 05:30 27.02463 31.04230 36099 ft 411 kts 314°
2026-05-09 05:30 27.06930 31.00225 36100 ft 412 kts 323°
2026-05-09 05:31 27.11614 30.96510 36098 ft 413 kts 323°
2026-05-09 05:31 27.16320 30.92758 36108 ft 418 kts 321°
2026-05-09 05:32 27.21104 30.88936 36107 ft 426 kts 321°
2026-05-09 05:32 27.25972 30.85046 36103 ft 431 kts 321°
2026-05-09 05:33 27.30874 30.81137 36096 ft 433 kts 321°
2026-05-09 05:33 27.35782 30.77220 36097 ft 433 kts 321°
2026-05-09 05:34 27.40688 30.73290 36094 ft 433 kts 321°
2026-05-09 05:34 27.45592 30.69368 36096 ft 432 kts 321°
2026-05-09 05:35 27.50500 30.65437 36093 ft 432 kts 321°
2026-05-09 05:35 27.55398 30.61501 36092 ft 432 kts 321°
2026-05-09 05:36 27.60291 30.57565 36090 ft 432 kts 321°
2026-05-09 05:36 27.65186 30.53622 36088 ft 433 kts 321°
2026-05-09 05:37 27.70086 30.49671 36085 ft 433 kts 321°
2026-05-09 05:37 27.74984 30.45733 36091 ft 433 kts 321°
2026-05-09 05:38 27.79885 30.41787 36090 ft 433 kts 321°
2026-05-09 05:38 27.84769 30.37833 36090 ft 433 kts 320°
2026-05-09 05:39 27.89671 30.33864 36092 ft 433 kts 320°
2026-05-09 05:39 27.94561 30.29898 36092 ft 433 kts 320°
2026-05-09 05:40 27.99417 30.25954 36092 ft 433 kts 320°
2026-05-09 05:40 28.04306 30.21980 36093 ft 433 kts 320°
2026-05-09 05:41 28.09186 30.18021 36095 ft 432 kts 320°
2026-05-09 05:41 28.14080 30.14041 36099 ft 432 kts 320°
2026-05-09 05:42 28.18969 30.10058 36101 ft 432 kts 320°
2026-05-09 05:42 28.23844 30.06076 36101 ft 432 kts 320°
2026-05-09 05:43 28.28715 30.02098 36103 ft 432 kts 320°
2026-05-09 05:43 28.33587 29.98112 36106 ft 431 kts 321°
2026-05-09 05:44 28.38460 29.94128 36106 ft 431 kts 321°
2026-05-09 05:44 28.43321 29.90143 36108 ft 431 kts 320°
2026-05-09 05:45 28.48149 29.86178 36107 ft 431 kts 321°
2026-05-09 05:45 28.53036 29.82165 36102 ft 431 kts 321°
2026-05-09 05:46 28.57890 29.78178 36115 ft 430 kts 321°
2026-05-09 05:46 28.62742 29.74182 36101 ft 430 kts 321°
2026-05-09 05:47 28.67589 29.70188 36100 ft 430 kts 321°
2026-05-09 05:47 28.72435 29.66191 36117 ft 430 kts 321°
2026-05-09 05:48 28.77276 29.62192 36111 ft 430 kts 321°
2026-05-09 05:48 28.82109 29.58198 36110 ft 429 kts 321°
2026-05-09 05:49 28.86948 29.54193 36113 ft 429 kts 321°
2026-05-09 05:49 28.91774 29.50189 36102 ft 429 kts 320°
2026-05-09 05:50 28.96605 29.46181 36108 ft 429 kts 321°
2026-05-09 05:50 29.01396 29.42197 36111 ft 429 kts 320°
2026-05-09 05:51 29.06216 29.38182 36103 ft 429 kts 320°
2026-05-09 05:51 29.11293 29.34577 36106 ft 434 kts 334°
2026-05-09 05:52 29.17206 29.33002 36101 ft 443 kts 354°
2026-05-09 05:52 29.23396 29.32937 36106 ft 445 kts 356°
2026-05-09 05:53 29.29597 29.32899 36101 ft 445 kts 355°
2026-05-09 05:53 29.35795 29.32854 36104 ft 446 kts 355°
2026-05-09 05:54 29.41997 29.32806 36101 ft 445 kts 355°
2026-05-09 05:54 29.48193 29.32761 36104 ft 445 kts 355°
2026-05-09 05:55 29.54392 29.32711 36106 ft 445 kts 355°
2026-05-09 05:55 29.60585 29.32656 36103 ft 445 kts 355°
2026-05-09 05:56 29.66772 29.32604 36106 ft 445 kts 355°
2026-05-09 05:56 29.72956 29.32556 36109 ft 445 kts 355°
2026-05-09 05:57 29.79146 29.32517 36107 ft 444 kts 355°
2026-05-09 05:57 29.85332 29.32476 36105 ft 444 kts 355°
2026-05-09 05:58 29.90469 29.32439 36106 ft 444 kts 355°
2026-05-09 05:58 29.96643 29.32393 36101 ft 444 kts 355°
2026-05-09 05:59 30.02817 29.32346 36103 ft 444 kts 355°
2026-05-09 05:59 30.08989 29.32305 36103 ft 443 kts 355°
2026-05-09 06:00 30.15148 29.32262 36104 ft 443 kts 355°
2026-05-09 06:00 30.21324 29.32215 36099 ft 443 kts 355°
2026-05-09 06:01 30.27479 29.32170 36098 ft 443 kts 355°
2026-05-09 06:01 30.33597 29.32120 36106 ft 442 kts 354°
2026-05-09 06:02 30.39749 29.32061 36101 ft 442 kts 354°
2026-05-09 06:02 30.45897 29.32002 36109 ft 442 kts 354°
2026-05-09 06:03 30.52049 29.31945 36102 ft 442 kts 354°
2026-05-09 06:03 30.58193 29.31886 36109 ft 441 kts 354°
2026-05-09 06:04 30.64333 29.31828 36100 ft 441 kts 354°
2026-05-09 06:04 30.70473 29.31771 36104 ft 441 kts 354°
2026-05-09 06:05 30.76600 29.31719 36112 ft 441 kts 354°
2026-05-09 06:05 30.82732 29.31671 36114 ft 440 kts 354°
2026-05-09 06:06 30.88859 29.31621 36114 ft 440 kts 354°
2026-05-09 06:06 30.94973 29.31570 36116 ft 440 kts 354°
2026-05-09 06:07 31.01088 29.31514 36120 ft 439 kts 354°
2026-05-09 06:07 31.07197 29.31455 36119 ft 439 kts 354°
2026-05-09 06:08 31.13305 29.31399 36120 ft 439 kts 354°
2026-05-09 06:08 31.19404 29.31344 36118 ft 438 kts 354°
2026-05-09 06:09 31.25515 29.31291 36124 ft 438 kts 354°
2026-05-09 06:09 31.31567 29.31236 36126 ft 438 kts 354°
2026-05-09 06:10 31.37654 29.31178 36120 ft 438 kts 354°
2026-05-09 06:10 31.43749 29.31121 36118 ft 438 kts 354°
2026-05-09 06:11 31.49838 29.31060 36119 ft 438 kts 354°
2026-05-09 06:11 31.55915 29.30988 36124 ft 438 kts 354°
2026-05-09 06:12 31.62026 29.30922 36122 ft 438 kts 354°
2026-05-09 06:12 31.68114 29.30862 36128 ft 438 kts 354°
2026-05-09 06:13 31.74211 29.30795 36132 ft 438 kts 354°
2026-05-09 06:13 31.80299 29.30733 36135 ft 438 kts 354°
2026-05-09 06:14 31.86391 29.30671 36141 ft 437 kts 353°
2026-05-09 06:14 31.92474 29.30606 36147 ft 437 kts 354°
2026-05-09 06:15 31.98555 29.30542 36151 ft 437 kts 354°
2026-05-09 06:15 32.04625 29.30476 36162 ft 436 kts 354°
2026-05-09 06:16 32.10689 29.30413 36160 ft 435 kts 354°
2026-05-09 06:16 32.16743 29.30345 36161 ft 435 kts 353°
2026-05-09 06:17 32.22586 29.29181 36154 ft 421 kts 335°
2026-05-09 06:17 32.27787 29.26199 36149 ft 414 kts 327°
2026-05-09 06:18 32.32856 29.22940 36152 ft 415 kts 327°
2026-05-09 06:18 32.37926 29.19677 36148 ft 415 kts 327°
2026-05-09 06:19 32.43000 29.16420 36149 ft 415 kts 327°
2026-05-09 06:19 32.48077 29.13162 36153 ft 415 kts 327°
2026-05-09 06:20 32.53148 29.09898 36152 ft 415 kts 327°
2026-05-09 06:20 32.58210 29.06616 36155 ft 415 kts 327°
2026-05-09 06:21 32.63276 29.03340 36151 ft 414 kts 327°
2026-05-09 06:21 32.68336 29.00062 36146 ft 414 kts 327°
2026-05-09 06:22 32.73363 28.96803 36156 ft 414 kts 327°
2026-05-09 06:22 32.78421 28.93523 36146 ft 414 kts 328°
2026-05-09 06:23 32.83480 28.90240 36148 ft 414 kts 328°
2026-05-09 06:23 32.88534 28.86956 36150 ft 414 kts 328°
2026-05-09 06:24 32.93591 28.83654 36148 ft 414 kts 328°
2026-05-09 06:24 32.98642 28.80358 36147 ft 414 kts 328°
2026-05-09 06:25 33.03697 28.77053 36151 ft 414 kts 328°
2026-05-09 06:25 33.08745 28.73744 36152 ft 414 kts 328°
2026-05-09 06:26 33.13795 28.70443 36156 ft 414 kts 328°
2026-05-09 06:26 33.18843 28.67138 36156 ft 413 kts 328°
2026-05-09 06:27 33.23882 28.63836 36160 ft 413 kts 327°
2026-05-09 06:27 33.28914 28.60525 36158 ft 413 kts 327°
2026-05-09 06:28 33.33941 28.57210 36156 ft 412 kts 327°
2026-05-09 06:28 33.38969 28.53896 36159 ft 412 kts 328°
2026-05-09 06:29 33.43985 28.50586 36160 ft 412 kts 327°
2026-05-09 06:29 33.48996 28.47267 36157 ft 411 kts 327°
2026-05-09 06:30 33.53999 28.43961 36159 ft 411 kts 327°
2026-05-09 06:30 33.59001 28.40647 36158 ft 410 kts 327°
2026-05-09 06:31 33.63987 28.37333 36162 ft 409 kts 327°
2026-05-09 06:31 33.68940 28.34035 36160 ft 409 kts 327°
2026-05-09 06:32 33.73911 28.30729 36160 ft 408 kts 327°
2026-05-09 06:33 33.81361 28.25766 36158 ft 408 kts 327°
2026-05-09 06:33 33.86303 28.22430 36158 ft 407 kts 327°
2026-05-09 06:34 33.93706 28.17425 36153 ft 406 kts 327°
2026-05-09 06:34 33.98631 28.14091 36154 ft 406 kts 327°
2026-05-09 06:35 34.03524 28.10774 36151 ft 406 kts 327°
2026-05-09 06:35 34.08471 28.07426 36150 ft 405 kts 327°
2026-05-09 06:36 34.13353 28.04110 36146 ft 405 kts 327°
2026-05-09 06:36 34.18252 28.00766 36145 ft 405 kts 327°
2026-05-09 06:37 34.23154 27.97420 36141 ft 404 kts 327°
2026-05-09 06:37 34.28058 27.94081 36141 ft 404 kts 327°
2026-05-09 06:38 34.32956 27.90737 36136 ft 404 kts 327°
2026-05-09 06:38 34.37850 27.87389 36141 ft 404 kts 327°
2026-05-09 06:39 34.42739 27.84037 36134 ft 403 kts 327°
2026-05-09 06:39 34.47620 27.80689 36135 ft 403 kts 327°
2026-05-09 06:40 34.52499 27.77340 36135 ft 403 kts 327°
2026-05-09 06:40 34.57371 27.73984 36136 ft 402 kts 327°
2026-05-09 06:41 34.62233 27.70619 36136 ft 402 kts 327°
2026-05-09 06:41 34.67093 27.67257 36137 ft 402 kts 327°
2026-05-09 06:42 34.71937 27.63900 36134 ft 401 kts 327°
2026-05-09 06:42 34.76789 27.60535 36136 ft 401 kts 327°
2026-05-09 06:43 34.81634 27.57167 36134 ft 401 kts 327°
2026-05-09 06:43 34.86468 27.53804 36135 ft 400 kts 327°
2026-05-09 06:44 34.91298 27.50437 36138 ft 400 kts 327°
2026-05-09 06:44 34.96118 27.47074 36134 ft 399 kts 327°
2026-05-09 06:45 35.00906 27.43729 36135 ft 399 kts 327°
2026-05-09 06:45 35.05716 27.40370 36131 ft 398 kts 327°
2026-05-09 06:46 35.09737 27.37547 36133 ft 398 kts 327°
2026-05-09 06:46 35.14532 27.34170 36129 ft 397 kts 327°
2026-05-09 06:47 35.19321 27.30811 36131 ft 397 kts 327°
2026-05-09 06:47 35.24112 27.27449 36136 ft 396 kts 327°
2026-05-09 06:48 35.28889 27.24087 36131 ft 396 kts 327°
2026-05-09 06:48 35.33658 27.20724 36132 ft 395 kts 327°
2026-05-09 06:49 35.38422 27.17358 36131 ft 395 kts 326°
2026-05-09 06:49 35.43227 27.14105 36130 ft 396 kts 331°
2026-05-09 06:50 35.48243 27.11289 36134 ft 396 kts 331°
2026-05-09 06:50 35.53249 27.08475 36135 ft 395 kts 331°
2026-05-09 06:51 35.58214 27.05680 36133 ft 395 kts 331°
2026-05-09 06:51 35.63205 27.02861 36131 ft 395 kts 331°
2026-05-09 06:52 35.68192 27.00047 36130 ft 394 kts 331°
2026-05-09 06:52 35.73173 26.97231 36132 ft 394 kts 330°
2026-05-09 06:53 35.78148 26.94409 36128 ft 393 kts 330°
2026-05-09 06:53 35.83120 26.91586 36126 ft 393 kts 330°
2026-05-09 06:54 35.88084 26.88764 36130 ft 393 kts 330°
2026-05-09 06:54 35.93038 26.85925 36128 ft 392 kts 330°
2026-05-09 06:55 35.97988 26.83085 36126 ft 392 kts 330°
2026-05-09 06:55 36.02931 26.80244 36127 ft 392 kts 330°
2026-05-09 06:56 36.07879 26.77411 36127 ft 391 kts 330°
2026-05-09 06:56 36.12817 26.74581 36129 ft 391 kts 330°
2026-05-09 06:57 36.17750 26.71745 36129 ft 391 kts 330°
2026-05-09 06:57 36.22678 26.68906 36131 ft 390 kts 330°
2026-05-09 06:58 36.27599 26.66053 36124 ft 390 kts 330°
2026-05-09 06:58 36.32521 26.63204 36133 ft 390 kts 330°
2026-05-09 06:59 36.37405 26.60372 36126 ft 390 kts 329°
2026-05-09 06:59 36.42314 26.57521 36122 ft 389 kts 329°
2026-05-09 07:00 36.47222 26.54668 36111 ft 389 kts 329°
2026-05-09 07:00 36.52124 26.51811 36116 ft 389 kts 329°
2026-05-09 07:01 36.57024 26.48957 36118 ft 389 kts 329°
2026-05-09 07:01 36.61913 26.46104 36122 ft 388 kts 329°
2026-05-09 07:02 36.66805 26.43242 36122 ft 388 kts 329°
2026-05-09 07:02 36.71693 26.40369 36119 ft 388 kts 329°
2026-05-09 07:03 36.76583 26.37501 36120 ft 388 kts 329°
2026-05-09 07:03 36.81468 26.34632 36118 ft 388 kts 329°
2026-05-09 07:04 36.86352 26.31752 36112 ft 388 kts 329°
2026-05-09 07:04 36.91245 26.28871 36113 ft 388 kts 329°
2026-05-09 07:05 36.96125 26.25987 36111 ft 388 kts 328°
2026-05-09 07:05 37.01004 26.23083 36110 ft 388 kts 328°
2026-05-09 07:06 37.05829 26.20144 36110 ft 388 kts 328°
2026-05-09 07:06 37.10676 26.17166 36111 ft 388 kts 327°
2026-05-09 07:07 37.15523 26.14183 36113 ft 388 kts 328°
2026-05-09 07:07 37.20380 26.11212 36123 ft 388 kts 328°
2026-05-09 07:08 37.25243 26.08238 36123 ft 389 kts 328°
2026-05-09 07:08 37.30102 26.05260 36111 ft 389 kts 327°
2026-05-09 07:09 37.34959 26.02269 36118 ft 389 kts 327°
2026-05-09 07:09 37.39813 25.99272 36099 ft 389 kts 327°
2026-05-09 07:10 37.44671 25.96272 36098 ft 389 kts 327°
2026-05-09 07:10 37.49505 25.93284 36097 ft 389 kts 327°
2026-05-09 07:11 37.54373 25.90281 36095 ft 390 kts 327°
2026-05-09 07:11 37.59241 25.87272 36096 ft 390 kts 327°
2026-05-09 07:12 37.64114 25.84248 36092 ft 391 kts 327°
2026-05-09 07:12 37.68996 25.81218 36086 ft 391 kts 327°
2026-05-09 07:13 37.73874 25.78181 36085 ft 391 kts 327°
2026-05-09 07:13 37.78762 25.75131 36084 ft 392 kts 327°
2026-05-09 07:14 37.83654 25.72066 36081 ft 392 kts 327°
2026-05-09 07:14 37.88551 25.69001 36078 ft 393 kts 327°
2026-05-09 07:15 37.93456 25.65933 36078 ft 394 kts 327°
2026-05-09 07:15 37.98365 25.62858 36078 ft 394 kts 326°
2026-05-09 07:16 38.03286 25.59769 36080 ft 395 kts 326°
2026-05-09 07:16 38.08182 25.56687 36075 ft 395 kts 326°
2026-05-09 07:17 38.13116 25.53583 36072 ft 396 kts 326°
2026-05-09 07:17 38.18085 25.50450 36070 ft 396 kts 326°
2026-05-09 07:18 38.23028 25.47323 36068 ft 397 kts 326°
2026-05-09 07:18 38.27976 25.44185 36067 ft 398 kts 326°
2026-05-09 07:19 38.32938 25.41049 36057 ft 398 kts 326°
2026-05-09 07:19 38.37903 25.37898 36057 ft 399 kts 326°
2026-05-09 07:20 38.42875 25.34740 36054 ft 400 kts 326°
2026-05-09 07:20 38.47814 25.31590 36056 ft 400 kts 326°
2026-05-09 07:21 38.52805 25.28406 36051 ft 401 kts 326°
2026-05-09 07:21 38.57803 25.25211 36050 ft 402 kts 326°
2026-05-09 07:22 38.62813 25.22009 36049 ft 403 kts 326°
2026-05-09 07:22 38.67833 25.18791 36049 ft 404 kts 326°
2026-05-09 07:23 38.72863 25.15562 36037 ft 405 kts 326°
2026-05-09 07:23 38.77903 25.12314 36052 ft 406 kts 326°
2026-05-09 07:24 38.82957 25.09058 36047 ft 407 kts 327°
2026-05-09 07:24 38.88029 25.05800 36045 ft 408 kts 327°
2026-05-09 07:25 38.93105 25.02527 36044 ft 409 kts 327°
2026-05-09 07:25 38.98188 24.99225 36049 ft 409 kts 327°
2026-05-09 07:26 39.03288 24.95922 36051 ft 410 kts 327°
2026-05-09 07:26 39.08353 24.92636 36050 ft 411 kts 327°
2026-05-09 07:27 39.13515 24.89333 36052 ft 413 kts 328°
2026-05-09 07:27 39.18676 24.86159 36052 ft 414 kts 328°
2026-05-09 07:28 39.23881 24.82973 36049 ft 414 kts 328°
2026-05-09 07:28 39.29085 24.79750 36047 ft 415 kts 328°
2026-05-09 07:29 39.34283 24.76501 36048 ft 415 kts 328°
2026-05-09 07:29 39.39493 24.73250 36051 ft 416 kts 328°
2026-05-09 07:30 39.44708 24.69988 36057 ft 417 kts 328°
2026-05-09 07:30 39.49932 24.66721 36058 ft 417 kts 329°
2026-05-09 07:31 39.55170 24.63444 36059 ft 418 kts 329°
2026-05-09 07:31 39.60407 24.60151 36061 ft 419 kts 329°
2026-05-09 07:32 39.65651 24.56850 36045 ft 419 kts 329°
2026-05-09 07:32 39.70022 24.54101 36047 ft 420 kts 329°
2026-05-09 07:33 39.77916 24.49118 36050 ft 421 kts 329°
2026-05-09 07:34 39.83189 24.45781 36048 ft 422 kts 329°
2026-05-09 07:34 39.88476 24.42433 36049 ft 423 kts 329°
2026-05-09 07:35 39.93766 24.39079 36050 ft 423 kts 329°
2026-05-09 07:35 39.99072 24.35711 36052 ft 424 kts 330°
2026-05-09 07:36 40.04375 24.32338 36052 ft 425 kts 330°
2026-05-09 07:36 40.09693 24.28944 36054 ft 425 kts 330°
2026-05-09 07:37 40.15014 24.25543 36053 ft 426 kts 330°
2026-05-09 07:37 40.20353 24.22136 36054 ft 427 kts 330°
2026-05-09 07:38 40.25693 24.18718 36059 ft 427 kts 330°
2026-05-09 07:38 40.31030 24.15290 36054 ft 427 kts 330°
2026-05-09 07:39 40.36376 24.11848 36062 ft 428 kts 330°
2026-05-09 07:39 40.41719 24.08398 36053 ft 428 kts 330°
2026-05-09 07:40 40.47030 24.04962 36055 ft 429 kts 330°
2026-05-09 07:40 40.52385 24.01496 36063 ft 429 kts 330°
2026-05-09 07:41 40.57747 23.98029 36062 ft 430 kts 330°
2026-05-09 07:41 40.63121 23.94569 36064 ft 430 kts 331°
2026-05-09 07:42 40.68530 23.91183 36063 ft 430 kts 332°
2026-05-09 07:42 40.73938 23.87809 36061 ft 430 kts 332°
2026-05-09 07:43 40.79351 23.84408 36063 ft 431 kts 332°
2026-05-09 07:43 40.84756 23.80993 36063 ft 431 kts 332°
2026-05-09 07:44 40.90159 23.77575 36063 ft 431 kts 332°
2026-05-09 07:44 40.95557 23.74151 36066 ft 431 kts 332°
2026-05-09 07:45 41.00963 23.70723 36068 ft 431 kts 332°
2026-05-09 07:45 41.06363 23.67285 36070 ft 431 kts 332°
2026-05-09 07:46 41.11764 23.63838 36065 ft 431 kts 332°
2026-05-09 07:46 41.17177 23.60391 36074 ft 431 kts 332°
2026-05-09 07:47 41.22582 23.56944 36076 ft 431 kts 332°
2026-05-09 07:47 41.27981 23.53483 36074 ft 431 kts 332°
2026-05-09 07:48 41.33372 23.50006 36072 ft 430 kts 332°
2026-05-09 07:48 41.38761 23.46531 36071 ft 430 kts 332°
2026-05-09 07:49 41.44151 23.43052 36075 ft 430 kts 332°
2026-05-09 07:49 41.49528 23.39543 36078 ft 430 kts 332°
2026-05-09 07:50 41.54779 23.36112 36078 ft 431 kts 332°
2026-05-09 07:50 41.60197 23.32566 36079 ft 430 kts 332°
2026-05-09 07:51 41.65538 23.29062 36076 ft 430 kts 332°
2026-05-09 07:51 41.70917 23.25531 36075 ft 430 kts 332°
2026-05-09 07:52 41.76282 23.22004 36080 ft 430 kts 332°
2026-05-09 07:52 41.81647 23.18471 36084 ft 430 kts 332°
2026-05-09 07:53 41.87010 23.14936 36078 ft 429 kts 332°
2026-05-09 07:53 41.92366 23.11390 36080 ft 429 kts 332°
2026-05-09 07:54 41.97726 23.07838 36083 ft 429 kts 332°
2026-05-09 07:54 42.03078 23.04287 36081 ft 429 kts 332°
2026-05-09 07:55 42.08422 23.00736 36078 ft 429 kts 332°
2026-05-09 07:55 42.13773 22.97172 36076 ft 428 kts 331°
2026-05-09 07:56 42.19073 22.93629 36077 ft 428 kts 331°
2026-05-09 07:56 42.24413 22.90058 36075 ft 428 kts 331°
2026-05-09 07:57 42.29746 22.86486 36076 ft 428 kts 331°
2026-05-09 07:57 42.35077 22.82896 36074 ft 428 kts 331°
2026-05-09 07:58 42.40406 22.79312 36069 ft 428 kts 331°
2026-05-09 07:58 42.45741 22.75727 36068 ft 428 kts 331°
2026-05-09 07:59 42.51065 22.72144 36071 ft 428 kts 331°
2026-05-09 07:59 42.56389 22.68541 36073 ft 427 kts 331°
2026-05-09 08:00 42.61708 22.64927 36071 ft 427 kts 331°
2026-05-09 08:00 42.67017 22.61311 36071 ft 427 kts 331°
2026-05-09 08:01 42.72333 22.57701 36075 ft 427 kts 331°
2026-05-09 08:01 42.77648 22.54085 36079 ft 427 kts 331°
2026-05-09 08:02 42.82963 22.50455 36081 ft 427 kts 331°
2026-05-09 08:02 42.88236 22.46845 36085 ft 427 kts 331°
2026-05-09 08:03 42.93559 22.43230 36075 ft 427 kts 331°
2026-05-09 08:03 42.98876 22.39622 36068 ft 427 kts 331°
2026-05-09 08:04 43.04190 22.36004 36073 ft 426 kts 330°
2026-05-09 08:04 43.09495 22.32377 36072 ft 426 kts 330°
2026-05-09 08:05 43.14805 22.28740 36068 ft 427 kts 330°
2026-05-09 08:05 43.20113 22.25098 36087 ft 427 kts 330°
2026-05-09 08:06 43.25385 22.21475 36077 ft 427 kts 330°
2026-05-09 08:06 43.30696 22.17805 36092 ft 427 kts 330°
2026-05-09 08:07 43.35997 22.14144 36094 ft 426 kts 330°
2026-05-09 08:07 43.41289 22.10482 36093 ft 426 kts 330°
2026-05-09 08:08 43.46597 22.06808 36094 ft 426 kts 330°
2026-05-09 08:08 43.51925 22.03110 36090 ft 426 kts 330°
2026-05-09 08:09 43.57180 21.99455 36091 ft 426 kts 330°
2026-05-09 08:09 43.62462 21.95778 36087 ft 426 kts 330°
2026-05-09 08:10 43.67754 21.92080 36094 ft 426 kts 330°
2026-05-09 08:10 43.73036 21.88374 36091 ft 426 kts 330°
2026-05-09 08:11 43.78321 21.84662 36094 ft 426 kts 330°
2026-05-09 08:11 43.83604 21.80957 36090 ft 426 kts 330°
2026-05-09 08:12 43.91521 21.75375 36092 ft 426 kts 330°
2026-05-09 08:12 43.96818 21.71643 36097 ft 427 kts 330°
2026-05-09 08:13 44.02107 21.67905 36098 ft 426 kts 329°
2026-05-09 08:13 44.07376 21.64162 36097 ft 426 kts 329°
2026-05-09 08:14 44.12659 21.60406 36101 ft 427 kts 329°
2026-05-09 08:14 44.17942 21.56654 36097 ft 426 kts 330°
2026-05-09 08:15 44.23226 21.52886 36096 ft 426 kts 329°
2026-05-09 08:15 44.28503 21.49098 36091 ft 426 kts 329°
2026-05-09 08:16 44.33781 21.45316 36092 ft 427 kts 330°
2026-05-09 08:16 44.39065 21.41528 36091 ft 427 kts 330°
2026-05-09 08:17 44.44339 21.37741 36087 ft 427 kts 330°
2026-05-09 08:17 44.49585 21.33955 36087 ft 427 kts 329°
2026-05-09 08:18 44.54861 21.30132 36092 ft 427 kts 329°
2026-05-09 08:18 44.60133 21.26305 36084 ft 427 kts 330°
2026-05-09 08:19 44.65415 21.22474 36084 ft 427 kts 330°
2026-05-09 08:19 44.70691 21.18633 36075 ft 427 kts 330°
2026-05-09 08:20 44.75967 21.14800 36078 ft 427 kts 330°
2026-05-09 08:20 44.81243 21.10957 36074 ft 427 kts 330°
2026-05-09 08:21 44.86512 21.07090 36077 ft 427 kts 329°
2026-05-09 08:21 44.90933 21.03835 36075 ft 427 kts 329°
2026-05-09 08:22 44.96201 20.99966 36073 ft 427 kts 330°
2026-05-09 08:22 45.01474 20.96093 36073 ft 427 kts 330°
2026-05-09 08:23 45.06753 20.92200 36074 ft 427 kts 330°
2026-05-09 08:23 45.12021 20.88303 36071 ft 427 kts 329°
2026-05-09 08:24 45.17283 20.84398 36076 ft 427 kts 329°
2026-05-09 08:24 45.22517 20.80508 36074 ft 428 kts 329°
2026-05-09 08:25 45.27788 20.76594 36075 ft 427 kts 329°
2026-05-09 08:25 45.33061 20.72664 36076 ft 427 kts 329°
2026-05-09 08:26 45.38321 20.68734 36079 ft 427 kts 329°
2026-05-09 08:26 45.43584 20.64801 36075 ft 427 kts 329°
2026-05-09 08:27 45.48849 20.60862 36079 ft 428 kts 329°
2026-05-09 08:27 45.54111 20.56900 36081 ft 428 kts 329°
2026-05-09 08:28 45.59368 20.52930 36087 ft 428 kts 329°
2026-05-09 08:28 45.64632 20.48962 36086 ft 427 kts 329°
2026-05-09 08:29 45.69889 20.44991 36081 ft 427 kts 329°
2026-05-09 08:29 45.75141 20.41009 36079 ft 427 kts 329°
2026-05-09 08:30 45.80399 20.37010 36080 ft 427 kts 329°
2026-05-09 08:30 45.85646 20.33007 36086 ft 427 kts 329°
2026-05-09 08:31 45.90895 20.29001 36084 ft 427 kts 329°
2026-05-09 08:31 45.96135 20.24991 36083 ft 427 kts 329°
2026-05-09 08:32 46.01337 20.20996 36083 ft 427 kts 329°
2026-05-09 08:33 46.09191 20.14965 36087 ft 426 kts 329°
2026-05-09 08:33 46.14426 20.10933 36090 ft 426 kts 329°
2026-05-09 08:34 46.20045 20.08077 36090 ft 431 kts 342°
2026-05-09 08:34 46.25868 20.05957 36085 ft 432 kts 342°
2026-05-09 08:35 46.31689 20.03824 36087 ft 432 kts 342°
2026-05-09 08:35 46.37524 20.01684 36089 ft 433 kts 342°
2026-05-09 08:36 46.43355 19.99542 36089 ft 433 kts 342°
2026-05-09 08:36 46.49195 19.97395 36091 ft 433 kts 342°
2026-05-09 08:37 46.55041 19.95239 36099 ft 433 kts 342°
2026-05-09 08:37 46.60887 19.93082 36101 ft 434 kts 342°
2026-05-09 08:38 46.66736 19.90913 36107 ft 434 kts 342°
2026-05-09 08:38 46.72587 19.88737 36108 ft 434 kts 342°
2026-05-09 08:39 46.78436 19.86558 36110 ft 434 kts 342°
2026-05-09 08:39 46.84278 19.84372 36105 ft 434 kts 342°
2026-05-09 08:40 46.90134 19.82193 36106 ft 434 kts 342°
2026-05-09 08:40 46.95993 19.80003 36106 ft 435 kts 342°
2026-05-09 08:41 47.01863 19.77798 36106 ft 435 kts 342°
2026-05-09 08:41 47.07729 19.75580 36107 ft 436 kts 342°
2026-05-09 08:42 47.13611 19.73359 36111 ft 436 kts 342°
2026-05-09 08:42 47.19492 19.71144 36104 ft 436 kts 342°
2026-05-09 08:43 47.25343 19.68935 36111 ft 437 kts 342°
2026-05-09 08:43 47.31228 19.66699 36103 ft 437 kts 341°
2026-05-09 08:44 47.37121 19.64451 36098 ft 438 kts 341°
2026-05-09 08:44 47.43022 19.62200 36101 ft 438 kts 341°
2026-05-09 08:45 47.48921 19.59939 36105 ft 438 kts 341°
2026-05-09 08:45 47.54827 19.57678 36107 ft 439 kts 341°
2026-05-09 08:46 47.60738 19.55405 36109 ft 439 kts 341°
2026-05-09 08:46 47.66655 19.53121 36110 ft 439 kts 341°
2026-05-09 08:47 47.72575 19.50839 36113 ft 440 kts 341°
2026-05-09 08:47 47.78501 19.48553 36112 ft 440 kts 341°
2026-05-09 08:48 47.84432 19.46250 36111 ft 440 kts 341°
2026-05-09 08:48 47.90359 19.43939 36108 ft 441 kts 341°
2026-05-09 08:49 47.96302 19.41623 36109 ft 441 kts 341°
2026-05-09 08:49 48.02253 19.39305 36107 ft 442 kts 341°
2026-05-09 08:50 48.08200 19.36953 36108 ft 441 kts 338°
2026-05-09 08:50 48.13814 19.33416 36104 ft 437 kts 331°
2026-05-09 08:51 48.19303 19.29626 36016 ft 439 kts 331°
2026-05-09 08:51 48.22081 19.27702 35442 ft 439 kts 331°
2026-05-09 08:51 48.24875 19.25770 34918 ft 436 kts 331°
2026-05-09 08:51 48.27586 19.23900 34374 ft 433 kts 331°
2026-05-09 08:52 48.30347 19.21997 33784 ft 431 kts 330°
2026-05-09 08:52 48.33067 19.20124 33241 ft 427 kts 330°
2026-05-09 08:52 48.35720 19.18296 32714 ft 424 kts 330°
2026-05-09 08:52 48.38421 19.16429 32169 ft 422 kts 330°
2026-05-09 08:53 48.41052 19.14602 31664 ft 420 kts 330°
2026-05-09 08:53 48.43696 19.12757 31139 ft 418 kts 330°
2026-05-09 08:53 48.46330 19.10918 30620 ft 417 kts 330°
2026-05-09 08:53 48.49005 19.09056 30089 ft 417 kts 330°
2026-05-09 08:54 48.51593 19.07253 29554 ft 415 kts 330°
2026-05-09 08:54 48.54206 19.05430 29059 ft 412 kts 330°
2026-05-09 08:54 48.56803 19.03614 28570 ft 409 kts 330°
2026-05-09 08:54 48.59375 19.01808 28088 ft 406 kts 330°
2026-05-09 08:55 48.61927 19.00011 27626 ft 403 kts 330°
2026-05-09 08:55 48.64459 18.98230 27169 ft 400 kts 331°
2026-05-09 08:55 48.66969 18.96467 26716 ft 397 kts 331°
2026-05-09 08:55 48.69472 18.94709 26277 ft 394 kts 331°
2026-05-09 08:56 48.71947 18.92966 25823 ft 391 kts 331°
2026-05-09 08:56 48.74406 18.91231 25371 ft 389 kts 332°
2026-05-09 08:56 48.76856 18.89500 24917 ft 387 kts 332°
2026-05-09 08:56 48.79287 18.87780 24444 ft 385 kts 332°
2026-05-09 08:57 48.81707 18.86064 23979 ft 383 kts 332°
2026-05-09 08:57 48.84118 18.84354 23457 ft 382 kts 332°
2026-05-09 08:57 48.86514 18.82657 22958 ft 379 kts 332°
2026-05-09 08:57 48.88894 18.80973 22462 ft 376 kts 332°
2026-05-09 08:58 48.91255 18.79297 21983 ft 373 kts 332°
2026-05-09 08:58 48.93591 18.77635 21509 ft 370 kts 332°
2026-05-09 08:58 48.95921 18.75972 21039 ft 368 kts 332°
2026-05-09 08:58 48.98227 18.74324 20566 ft 366 kts 333°
2026-05-09 08:59 49.00524 18.72681 20104 ft 364 kts 332°
2026-05-09 08:59 49.02811 18.71044 19628 ft 363 kts 333°
2026-05-09 08:59 49.05089 18.69411 19164 ft 361 kts 333°
2026-05-09 08:59 49.07325 18.67809 18706 ft 348 kts 333°
2026-05-09 09:00 49.09514 18.66239 18243 ft 347 kts 333°
2026-05-09 09:00 49.11691 18.64681 17790 ft 345 kts 333°
2026-05-09 09:00 49.13854 18.63136 17344 ft 342 kts 333°
2026-05-09 09:00 49.15976 18.61617 16929 ft 340 kts 333°
2026-05-09 09:01 49.18136 18.60068 16488 ft 338 kts 333°
2026-05-09 09:01 49.20228 18.58563 16069 ft 336 kts 333°
2026-05-09 09:01 49.22337 18.57042 15651 ft 334 kts 333°
2026-05-09 09:01 49.24437 18.55527 15227 ft 333 kts 333°
2026-05-09 09:02 49.26529 18.54017 14808 ft 332 kts 333°
2026-05-09 09:02 49.28620 18.52506 14388 ft 331 kts 333°
2026-05-09 09:02 49.30695 18.51004 13963 ft 330 kts 333°
2026-05-09 09:02 49.32766 18.49506 13507 ft 327 kts 333°
2026-05-09 09:03 49.34664 18.48135 13125 ft 324 kts 333°
2026-05-09 09:03 49.36702 18.46663 12705 ft 322 kts 333°
2026-05-09 09:03 49.38716 18.45201 12279 ft 319 kts 332°
2026-05-09 09:03 49.40574 18.43396 11915 ft 313 kts 322°
2026-05-09 09:04 49.42319 18.41451 11609 ft 308 kts 322°
2026-05-09 09:04 49.44040 18.39546 11297 ft 303 kts 322°
2026-05-09 09:04 49.45739 18.37669 10987 ft 298 kts 322°
2026-05-09 09:04 49.47418 18.35814 10689 ft 296 kts 322°
2026-05-09 09:05 49.49059 18.33997 10440 ft 281 kts 322°
2026-05-09 09:05 49.50594 18.32299 10230 ft 266 kts 322°
2026-05-09 09:05 49.52076 18.30656 10095 ft 262 kts 322°
2026-05-09 09:05 49.53552 18.29017 9852 ft 260 kts 322°
2026-05-09 09:06 49.55018 18.27385 9615 ft 259 kts 322°
2026-05-09 09:06 49.56474 18.25763 9340 ft 258 kts 322°
2026-05-09 09:06 49.57899 18.24116 9056 ft 255 kts 316°
2026-05-09 09:06 49.58649 18.22744 8878 ft 252 kts 300°
2026-05-09 09:07 49.59247 18.20226 8600 ft 251 kts 278°
2026-05-09 09:07 49.59142 18.17560 8340 ft 252 kts 255°
2026-05-09 09:07 49.58348 18.15161 8084 ft 255 kts 232°
2026-05-09 09:07 49.57133 18.13160 7820 ft 256 kts 229°
2026-05-09 09:08 49.55908 18.11204 7623 ft 248 kts 228°
2026-05-09 09:08 49.54736 18.09334 7500 ft 238 kts 229°
2026-05-09 09:08 49.53601 18.07521 7270 ft 234 kts 229°
2026-05-09 09:08 49.52482 18.05727 7019 ft 231 kts 229°
2026-05-09 09:09 49.51371 18.03942 6701 ft 232 kts 229°
2026-05-09 09:09 49.50256 18.02151 6362 ft 229 kts 229°
2026-05-09 09:09 49.49282 18.00312 6020 ft 216 kts 246°
2026-05-09 09:09 49.48832 17.98165 5780 ft 208 kts 267°
2026-05-09 09:10 49.48928 17.96018 5677 ft 196 kts 287°
2026-05-09 09:10 49.49464 17.94181 5510 ft 184 kts 305°
2026-05-09 09:10 49.50308 17.92759 5310 ft 179 kts 317°
2026-05-09 09:10 49.51206 17.91441 5120 ft 178 kts 317°
2026-05-09 09:11 49.52099 17.90121 4831 ft 177 kts 318°
2026-05-09 09:11 49.53002 17.88829 4589 ft 178 kts 324°
2026-05-09 09:11 49.54127 17.88143 4368 ft 174 kts 355°
2026-05-09 09:11 49.55295 17.88431 4199 ft 171 kts 23°
2026-05-09 09:12 49.56230 17.89557 4038 ft 172 kts 45°
2026-05-09 09:12 49.57051 17.90887 3868 ft 170 kts 44°
2026-05-09 09:12 49.57866 17.92193 3687 ft 167 kts 44°
2026-05-09 09:12 49.58662 17.93465 3655 ft 165 kts 45°
2026-05-09 09:13 49.59455 17.94735 3479 ft 160 kts 45°
2026-05-09 09:13 49.60191 17.95915 3231 ft 148 kts 45°
2026-05-09 09:13 49.60893 17.97037 2982 ft 144 kts 45°
2026-05-09 09:13 49.61579 17.98136 2766 ft 142 kts 44°
2026-05-09 09:14 49.62260 17.99229 2595 ft 140 kts 45°
2026-05-09 09:14 49.62936 18.00317 2431 ft 140 kts 44°
2026-05-09 09:14 49.63608 18.01400 2277 ft 140 kts 45°
2026-05-09 09:14 49.64281 18.02486 2113 ft 140 kts 44°
2026-05-09 09:15 49.64964 18.03551 1892 ft 140 kts 45°
2026-05-09 09:15 49.65629 18.04634 1715 ft 140 kts 45°
2026-05-09 09:15 49.66303 18.05724 1550 ft 139 kts 46°
2026-05-09 09:15 49.66978 18.06814 1324 ft 140 kts 45°
2026-05-09 09:16 49.67654 18.07895 1144 ft 141 kts 47°
2026-05-09 09:16 49.68980 18.10004 904 ft 135 kts 43°
2026-05-09 09:16 49.69665 18.11132 1475 ft 152 kts 48°
2026-05-09 09:17 49.70348 18.12429 2186 ft 157 kts 50°
2026-05-09 09:17 49.71038 18.13727 2813 ft 161 kts 48°
2026-05-09 09:17 49.71794 18.15087 3340 ft 167 kts 47°
2026-05-09 09:17 49.72575 18.16460 3764 ft 182 kts 46°
2026-05-09 09:18 49.73483 18.18011 3963 ft 205 kts 46°
2026-05-09 09:18 49.74495 18.19661 4000 ft 215 kts 43°
2026-05-09 09:18 49.75557 18.21292 4007 ft 217 kts 43°
2026-05-09 09:18 49.76636 18.22941 4011 ft 217 kts 43°
2026-05-09 09:19 49.77711 18.24577 4009 ft 217 kts 44°
2026-05-09 09:19 49.78537 18.26538 4006 ft 228 kts 73°
2026-05-09 09:19 49.78564 18.29083 4011 ft 248 kts 103°
2026-05-09 09:19 49.77973 18.31626 4006 ft 255 kts 118°
2026-05-09 09:20 49.76769 18.33624 4001 ft 258 kts 144°
2026-05-09 09:20 49.75245 18.35099 4002 ft 259 kts 148°
2026-05-09 09:20 49.73680 18.36493 4008 ft 260 kts 149°
2026-05-09 09:20 49.72114 18.37871 4004 ft 259 kts 149°
2026-05-09 09:21 49.70446 18.38901 4000 ft 260 kts 172°
2026-05-09 09:21 49.68663 18.38614 4003 ft 260 kts 202°
2026-05-09 09:21 49.67175 18.37087 4005 ft 259 kts 223°
2026-05-09 09:21 49.65872 18.35162 4009 ft 260 kts 226°
2026-05-09 09:22 49.64747 18.33007 4004 ft 258 kts 237°
2026-05-09 09:22 49.63734 18.30717 4005 ft 259 kts 237°
2026-05-09 09:22 49.62722 18.28429 4002 ft 259 kts 237°
2026-05-09 09:22 49.61704 18.26131 4006 ft 259 kts 237°
2026-05-09 09:23 49.60688 18.23840 4006 ft 259 kts 237°
2026-05-09 09:23 49.59672 18.21545 4010 ft 259 kts 237°
2026-05-09 09:23 49.58654 18.19246 4009 ft 260 kts 237°
2026-05-09 09:23 49.57633 18.16947 4008 ft 260 kts 237°
2026-05-09 09:24 49.56613 18.14655 4006 ft 259 kts 237°
2026-05-09 09:24 49.55591 18.12364 4008 ft 260 kts 237°
2026-05-09 09:24 49.54572 18.10077 4001 ft 259 kts 237°
2026-05-09 09:24 49.53553 18.07786 4002 ft 259 kts 237°
2026-05-09 09:25 49.52436 18.05615 4004 ft 260 kts 227°
2026-05-09 09:25 49.51179 18.03605 3999 ft 261 kts 227°
2026-05-09 09:25 49.49929 18.01610 3997 ft 255 kts 227°
2026-05-09 09:25 49.48953 17.99476 4000 ft 235 kts 251°
2026-05-09 09:26 49.48694 17.97113 3988 ft 217 kts 278°
2026-05-09 09:26 49.49070 17.94988 3989 ft 198 kts 301°
2026-05-09 09:26 49.49873 17.93388 4038 ft 185 kts 319°
2026-05-09 09:26 49.50801 17.92031 4012 ft 183 kts 319°
2026-05-09 09:27 49.51707 17.90697 3995 ft 177 kts 319°
2026-05-09 09:27 49.52588 17.89396 3997 ft 175 kts 319°
2026-05-09 09:27 49.53600 17.88401 3822 ft 172 kts 345°
2026-05-09 09:27 49.54768 17.88276 3717 ft 168 kts 10°
2026-05-09 09:28 49.55834 17.88981 3686 ft 169 kts 37°
2026-05-09 09:28 49.56673 17.90257 3644 ft 170 kts 45°
2026-05-09 09:28 49.57490 17.91568 3609 ft 170 kts 44°
2026-05-09 09:28 49.58308 17.92878 3566 ft 169 kts 45°
2026-05-09 09:29 49.59123 17.94185 3440 ft 167 kts 44°
2026-05-09 09:29 49.59886 17.95413 3243 ft 151 kts 44°
2026-05-09 09:29 49.60595 17.96552 3057 ft 145 kts 44°
2026-05-09 09:29 49.61288 17.97662 2877 ft 142 kts 44°
2026-05-09 09:30 49.61973 17.98762 2705 ft 142 kts 45°
2026-05-09 09:30 49.62654 17.99856 2502 ft 142 kts 44°
2026-05-09 09:30 49.63330 18.00945 2292 ft 140 kts 44°
2026-05-09 09:30 49.64003 18.02021 2170 ft 140 kts 44°
2026-05-09 09:31 49.64681 18.03112 2015 ft 141 kts 45°
2026-05-09 09:31 49.65369 18.04188 1891 ft 141 kts 46°
2026-05-09 09:31 49.66042 18.05292 1691 ft 141 kts 45°
2026-05-09 09:32 49.67379 18.07480 1227 ft 140 kts 46°
2026-05-09 09:32 49.68056 18.08564 1025 ft 140 kts 46°
2026-05-09 09:32 49.68739 18.09640 872 ft 139 kts 46°
2026-05-09 09:32 49.69339 18.10633 831 ft 106 kts 47°
2026-05-09 09:33 49.69716 18.11246 830 ft 57 kts 46°
2026-05-09 09:33 49.69889 18.11519 831 ft 26 kts 44°
2026-05-09 09:33 49.70023 18.11723 827 ft 27 kts 47°
2026-05-09 09:33 49.70153 18.11942 825 ft 28 kts 47°
2026-05-09 09:34 49.70262 18.12125 826 ft 16 kts 64°
2026-05-09 09:34 49.70203 18.12256 826 ft 16 kts 136°
2026-05-09 09:34 49.70116 18.12386 824 ft 18 kts 136°
2026-05-09 09:36 49.69734 18.11972 826 ft 8 kts 225°
2026-05-09 09:36 49.69683 18.11955 824 ft 11 kts 160°
2026-05-09 09:36 49.69627 18.12000 830 ft 5 kts 151°
2026-05-09 09:37 49.69603 18.12013 830 ft 2 kts 175°
2026-05-09 09:37 49.69593 18.12013 831 ft 3 kts 181°
2026-05-09 09:37 49.69586 18.12013 831 ft 4 kts 181°
2026-05-09 09:37 49.69585 18.12013 831 ft 0 kts 181°